Starlink 35440

operational
NORAD ID: 66345 Int'l Des: 2025-253 Owner: SPXS Country: US Constellation: starlink
NOTLE

关于 Starlink 35440

正在加载描述...

实时位置

正在加载3D地球...

即将过境

高度历史

Altitude vs Time

uPlot chart will show altitude changes over time

两行轨道根数

1 66345U 25253AC 25354.89746099 .00030499 00000-0 73380-3 0 9991
2 66345 43.0016 298.3983 0001362 268.2475 91.8225 15.40726857 8187
Epoch: Dec 20, 2025 • Age: 25 hours

当前状态

高度 454.9 km
速度 7.64 km/s
星下点 -39.97°S, 166.45°E
发射日期 Nov 6, 2025
运行时间 0.1 years
类型 internet

技术详情

分类 Payload
质量 575.00 kg
干质量 530.00 kg
总质量 575.00 kg
长度 0.30 m
直径 4.10 m
跨度 29.00 m
形状 Box + pan
制造商 SPXS
平台类型 Starlink V2MO
阶段状态 In Orbit
所有者/国家 SPXS/US

大型星座

Loading constellations...